Starlink 33576

operational
NORAD ID: 62775 Int'l Des: 2025-015 Owner: SPXS Country: US Constellation: starlink
LEOCIRCULAR

关于 Starlink 33576

正在加载描述...

实时位置

正在加载3D地球...

即将过境

高度历史

Altitude vs Time

uPlot chart will show altitude changes over time

两行轨道根数

1 62775U 25015T 25259.71612585 .00003113 00000-0 11723-3 0 9993
2 62775 53.1593 50.6452 0001126 100.4641 259.6486 15.30187991 37782
Epoch: Sep 16, 2025 • Age: 27 hours

当前状态

高度 476.8 km
速度 7.63 km/s
星下点 31.35°N, 135.28°E
发射日期 Jan 21, 2025
运行时间 0.6 years
类型 internet

技术详情

分类 Payload
质量 575.00 kg
干质量 530.00 kg
总质量 575.00 kg
长度 0.30 m
直径 4.10 m
跨度 29.00 m
形状 Box + pan
制造商 SPXS
平台类型 Starlink V2MO
阶段状态 In Orbit
所有者/国家 SPXS/US

大型星座

Loading constellations...